DW4604 Weather Reports


time (UTC)temp
F
wind
direction
speed
knots
gust
knots
rain 1hr
in
rain 24hr
in
rain mn
in
humidity
%
barometer
mb
20260831131503 75 0 0.0 0.0 0.00 0.00 0.00 70 1013.3
20260831131002 75 0 0.0 0.0 0.00 0.00 0.00 69 1013.3
20260831130502 75 0 0.0 0.0 0.00 0.00 0.00 68 1013.3
20260831125002 76 0 0.0 0.0 0.00 0.00 0.00 69 1013.3
20260831124002 74 0 0.0 0.0 0.00 0.00 0.00 70 1013.2
20260831123502 75 0 0.0 0.0 0.00 0.00 0.00 68 1013.3
20260831123004 76 0 0.0 0.0 0.00 0.00 0.00 67 1013.3
20260831122503 76 0 0.0 0.0 0.00 0.00 0.00 70 1013.3
20260831122003 76 0 0.0 0.0 0.00 0.00 0.00 69 1013.3
20260831121502 77 0 0.0 0.0 0.00 0.00 0.00 71 1013.2
20260831121002 76 0 0.0 0.0 0.00 0.00 0.00 75 1013.2
20260831120002 75 0 0.0 0.0 0.00 0.00 0.00 76 1013.3
20260831115502 75 0 0.0 0.0 0.00 0.00 0.00 74 1013.2
20260831114502 74 0 0.0 0.0 0.00 0.00 0.00 77 1013.0
20260831114004 73 0 0.0 0.0 0.00 0.00 0.00 82 1013.0
20260831113003 72 0 0.0 0.0 0.00 0.00 0.00 86 1013.1
20260831112504 72 0 0.0 0.0 0.00 0.00 0.00 86 1013.2
20260831112003 72 0 0.0 0.0 0.00 0.00 0.00 85 1013.2
20260831111503 72 0 0.0 0.0 0.00 0.00 0.00 84 1013.3
20260831110503 72 0 0.0 0.0 0.00 0.00 0.00 85 1013.3
20260831110003 72 0 0.0 0.0 0.00 0.00 0.00 87 1013.4
20260831105503 71 0 0.0 0.0 0.00 0.00 0.00 86 1013.4
20260831105003 71 0 0.0 0.0 0.00 0.00 0.00 85 1013.4
20260831104504 71 0 0.0 0.0 0.00 0.00 0.00 85 1013.5
20260831104003 72 0 0.0 0.0 0.00 0.00 0.00 83 1013.4
20260831103502 72 0 0.0 0.0 0.00 0.00 0.00 83 1013.5
20260831102503 72 0 0.0 0.0 0.00 0.00 0.00 80 1013.4
20260831102003 73 0 0.0 0.0 0.00 0.00 0.00 80 1013.5
20260831101004 74 0 0.0 0.0 0.00 0.00 0.00 75 1013.6
20260831100004 73 0 0.0 0.0 0.00 0.00 0.00 81 1013.5
20260831095504 73 0 0.0 0.0 0.00 0.00 0.00 80 1013.5
20260831095003 73 0 0.0 0.0 0.00 0.00 0.00 79 1013.4
20260831094005 73 0 0.0 0.0 0.00 0.00 0.00 76 1013.5
20260831093503 73 0 0.0 0.0 0.00 0.00 0.00 78 1013.5
20260831093003 74 0 0.0 0.0 0.00 0.00 0.00 78 1013.4
20260831092503 74 0 0.0 0.0 0.00 0.00 0.00 79 1013.4
20260831092003 74 0 0.0 0.0 0.00 0.00 0.00 77 1013.4
20260831091503 74 0 0.0 0.0 0.00 0.00 0.00 75 1013.4
20260831091003 75 0 0.0 0.0 0.00 0.00 0.00 70 1013.2
20260831090503 75 0 0.0 0.0 0.00 0.00 0.00 69 1013.3
20260831085503 75 0 0.0 0.0 0.00 0.00 0.00 70 1013.4
20260831084503 75 0 0.0 0.0 0.00 0.00 0.00 71 1013.5
20260831084003 75 0 0.0 0.0 0.00 0.00 0.00 71 1013.4
20260831083503 75 0 0.0 0.0 0.00 0.00 0.00 73 1013.4
20260831083003 74 0 0.0 0.0 0.00 0.00 0.00 72 1013.3
20260831082505 74 0 0.0 0.0 0.00 0.00 0.00 71 1013.3
20260831082004 75 0 0.0 0.0 0.00 0.00 0.00 69 1013.4
20260831081003 75 0 0.0 0.0 0.00 0.00 0.00 68 1013.3
20260831080003 73 0 0.0 0.0 0.00 0.00 0.00 75 1013.5
20260831075503 72 0 0.0 0.0 0.00 0.00 0.00 73 1013.5
20260831075005 72 0 0.0 0.0 0.00 0.00 0.00 73 1013.5
20260831074503 73 0 0.0 0.0 0.00 0.00 0.00 71 1013.4
20260831074004 73 0 0.0 0.0 0.00 0.00 0.00 74 1013.4
20260831073004 70 0 0.0 0.0 0.00 0.00 0.00 79 1013.5
20260831072504 69 0 0.0 0.0 0.00 0.00 0.00 81 1013.6
20260831072005 68 0 0.0 0.0 0.00 0.00 0.00 82 1013.6
20260831071503 67 0 0.0 0.0 0.00 0.00 0.00 84 1013.6
20260831071004 67 0 0.0 0.0 0.00 0.00 0.00 84 1013.6
20260831070504 67 0 0.0 0.0 0.00 0.00 0.00 84 1013.6
20260831070003 66 0 0.0 0.0 0.00 0.00 0.00 84 1013.7
20260831065004 66 0 0.0 0.0 0.00 0.00 0.00 85 1013.7
20260831064504 66 0 0.0 0.0 0.00 0.00 0.00 86 1013.7
20260831064005 65 0 0.0 0.0 0.00 0.00 0.00 87 1013.8
20260831063504 65 0 0.0 0.0 0.00 0.00 0.00 89 1013.8
20260831062005 64 0 0.0 0.0 0.00 0.00 0.00 92 1013.9
20260831061504 63 0 0.0 0.0 0.00 0.00 0.00 93 1013.9
20260831061003 63 0 0.0 0.0 0.00 0.00 0.00 94 1013.9
20260831060504 62 0 0.0 0.0 0.00 0.00 0.00 94 1014.0
20260831060004 62 0 0.0 0.0 0.00 0.00 0.00 95 1013.8
20260831055504 62 0 0.0 0.0 0.00 0.00 0.00 95 1013.9
20260831055004 62 0 0.0 0.0 0.00 0.00 0.00 95 1013.9
20260831054004 62 0 0.0 0.0 0.00 0.00 0.00 95 1013.9
20260831053504 61 0 0.0 0.0 0.00 0.00 0.00 95 1014.0
20260831053004 61 0 0.0 0.0 0.00 0.00 0.00 95 1013.9
20260831052504 61 0 0.0 0.0 0.00 0.00 0.00 95 1013.9
20260831051504 60 0 0.0 0.0 0.00 0.00 0.00 95 1013.8
20260831051004 60 0 0.0 0.0 0.00 0.00 0.00 95 1013.8
20260831050503 59 0 0.0 0.0 0.00 0.00 0.00 95 1013.8
20260831050004 58 0 0.0 0.0 0.00 0.00 0.00 94 1013.8
20260831045505 57 0 0.0 0.0 0.00 0.00 0.00 94 1013.8
20260831045004 57 0 0.0 0.0 0.00 0.00 0.00 94 1013.8
20260831044504 57 0 0.0 0.0 0.00 0.00 0.00 94 1013.8
20260831044004 56 0 0.0 0.0 0.00 0.00 0.00 94 1013.9
20260831043504 56 0 0.0 0.0 0.00 0.00 0.00 94 1013.9
20260831042504 56 0 0.0 0.0 0.00 0.00 0.00 94 1013.9
20260831042004 56 0 0.0 0.0 0.00 0.00 0.00 94 1013.8
20260831041506 56 0 0.0 0.0 0.00 0.00 0.00 94 1013.8
20260831040505 56 0 0.0 0.0 0.00 0.00 0.00 94 1013.8
20260831040005 56 0 0.0 0.0 0.00 0.00 0.00 94 1013.9
20260831034504 56 0 0.0 0.0 0.00 0.00 0.00 94 1013.8
20260831034004 56 0 0.0 0.0 0.00 0.00 0.00 94 1013.9
20260831033504 56 0 0.0 0.0 0.00 0.00 0.00 94 1013.8
20260831033004 56 0 0.0 0.0 0.00 0.00 0.00 94 1013.9
20260831032505 56 0 0.0 0.0 0.00 0.00 0.00 94 1013.9
20260831032004 56 0 0.0 0.0 0.00 0.00 0.00 94 1013.9
20260831031504 56 0 0.0 0.0 0.00 0.00 0.00 94 1013.9
20260831031004 57 0 0.0 0.0 0.00 0.00 0.00 94 1013.9
20260831030504 56 0 0.0 0.0 0.00 0.00 0.00 94 1014.0
20260831030006 57 0 0.0 0.0 0.00 0.00 0.00 94 1013.9
20260831025504 57 0 0.0 0.0 0.00 0.00 0.00 94 1014.0
20260831025004 57 0 0.0 0.0 0.00 0.00 0.00 94 1013.9
20260831024005 57 0 0.0 0.0 0.00 0.00 0.00 94 1014.0
20260831023505 57 0 0.0 0.0 0.00 0.00 0.00 93 1014.0
20260831023005 57 0 0.0 0.0 0.00 0.00 0.00 93 1014.0
20260831021505 57 0 0.0 0.0 0.00 0.00 0.00 93 1014.0
20260831021004 57 0 0.0 0.0 0.00 0.00 0.00 93 1014.1
20260831020505 58 0 0.0 0.0 0.00 0.00 0.00 93 1014.0
20260831020004 58 0 0.0 0.0 0.00 0.00 0.00 93 1014.0
20260831015504 58 0 0.0 0.0 0.00 0.00 0.00 93 1014.0
20260831015004 58 0 0.0 0.0 0.00 0.00 0.00 93 1014.0
20260831014005 58 0 0.0 0.0 0.00 0.00 0.00 93 1014.0
20260831013505 58 0 0.0 0.0 0.00 0.00 0.00 93 1014.0
20260831013006 58 0 0.0 0.0 0.00 0.00 0.00 93 1014.0
20260831012505 58 0 0.0 0.0 0.00 0.00 0.00 93 1014.0
20260831012005 58 0 0.0 0.0 0.00 0.00 0.00 93 1014.0
20260831011505 58 0 0.0 0.0 0.00 0.00 0.00 93 1014.0
20260831010506 58 0 0.0 0.0 0.00 0.00 0.00 93 1014.1
20260831010005 58 0 0.0 0.0 0.00 0.00 0.00 93 1014.1
20260831005505 58 0 0.0 0.0 0.00 0.00 0.00 93 1014.2
20260831005007 58 0 0.0 0.0 0.00 0.00 0.00 93 1014.2
20260831004005 59 0 0.0 0.0 0.00 0.00 0.00 92 1014.3
20260831003505 59 0 0.0 0.0 0.00 0.00 0.00 92 1014.3
20260831002005 59 0 0.0 0.0 0.00 0.00 0.00 92 1014.3
20260831001505 59 0 0.0 0.0 0.00 0.00 0.00 92 1014.3
20260831001005 59 0 0.0 0.0 0.00 0.00 0.00 92 1014.3
20260831000006 59 0 0.0 0.0 0.00 0.00 0.00 92 1014.3
20260830235506 60 0 0.0 0.0 0.00 0.00 0.00 92 1014.3
20260830235005 60 0 0.0 0.0 0.00 0.00 0.00 92 1014.3
20260830234505 59 0 0.0 0.0 0.00 0.00 0.00 92 1014.4
20260830234007 60 0 0.0 0.0 0.00 0.00 0.00 92 1014.4
20260830233505 60 0 0.0 0.0 0.00 0.00 0.00 91 1014.4
20260830233005 60 0 0.0 0.0 0.00 0.00 0.00 91 1014.3
20260830232506 60 0 0.0 0.0 0.00 0.00 0.00 91 1014.3
20260830232005 60 0 0.0 0.0 0.00 0.00 0.00 91 1014.4
20260830231506 60 0 0.0 0.0 0.00 0.00 0.00 91 1014.3
20260830230505 60 0 0.0 0.0 0.00 0.00 0.00 91 1014.3
20260830230005 60 0 0.0 0.0 0.00 0.00 0.00 91 1014.3
20260830225431 60 0 0.0 0.0 0.00 0.00 0.00 90 1014.3
20260830224931 61 0 0.0 0.0 0.00 0.00 0.00 90 1014.3
20260830224433 61 0 0.0 0.0 0.00 0.00 0.00 90 1014.3
20260830223932 61 0 0.0 0.0 0.00 0.00 0.00 90 1014.4
20260830223432 62 0 0.0 0.0 0.00 0.00 0.00 90 1014.5
20260830222932 62 0 0.0 0.0 0.00 0.00 0.00 90 1014.4
20260830221932 62 0 0.0 0.0 0.00 0.00 0.00 89 1014.5
20260830221432 62 0 0.0 0.0 0.00 0.00 0.00 89 1014.5
20260830220932 62 0 0.0 0.0 0.00 0.00 0.00 89 1014.6
20260830220433 62 0 0.0 0.0 0.00 0.00 0.00 89 1014.5
20260830215932 62 0 0.0 0.0 0.00 0.00 0.00 89 1014.5
20260830215432 63 0 0.0 0.0 0.00 0.00 0.00 89 1014.6
20260830213932 64 0 0.0 0.0 0.00 0.00 0.00 88 1014.6
20260830213432 64 0 0.0 0.0 0.00 0.00 0.00 88 1014.6
20260830212433 65 0 0.0 0.0 0.00 0.00 0.00 88 1014.5
20260830211932 65 0 0.0 0.0 0.00 0.00 0.00 87 1014.5
20260830211433 65 0 0.0 0.0 0.00 0.00 0.00 87 1014.5
20260830210932 65 0 0.0 0.0 0.00 0.00 0.00 87 1014.3
20260830210433 65 0 0.0 0.0 0.00 0.00 0.00 87 1014.3
20260830205934 65 0 0.0 0.0 0.00 0.00 0.00 86 1014.3
20260830205432 65 0 0.0 0.0 0.00 0.00 0.00 86 1014.3
20260830204932 65 0 0.0 0.0 0.00 0.00 0.00 85 1014.2
20260830204432 65 0 0.0 0.0 0.00 0.00 0.00 85 1014.2
20260830203932 65 0 0.0 0.0 0.00 0.00 0.00 85 1014.2
20260830203432 65 0 0.0 0.0 0.00 0.00 0.00 85 1014.2
20260830201932 65 0 0.0 0.0 0.00 0.00 0.00 86 1014.0
20260830201432 64 0 0.0 0.0 0.00 0.00 0.00 86 1014.0
20260830200933 64 0 0.0 0.0 0.00 0.00 0.00 86 1014.0
20260830200432 64 0 0.0 0.0 0.00 0.00 0.00 86 1014.0
20260830195932 64 0 0.0 0.0 0.00 0.00 0.00 86 1014.0
20260830195432 64 0 0.0 0.0 0.00 0.00 0.00 86 1014.0
20260830194932 64 0 0.0 0.0 0.00 0.00 0.00 86 1014.0
20260830194434 64 0 0.0 0.0 0.00 0.00 0.00 86 1014.0
20260830193433 64 0 0.0 0.0 0.00 0.00 0.00 85 1014.0
20260830192932 64 0 0.0 0.0 0.00 0.00 0.00 84 1013.9
20260830192432 64 0 0.0 0.0 0.00 0.00 0.00 84 1013.9
20260830191933 64 0 0.0 0.0 0.00 0.00 0.00 83 1013.9
20260830191433 65 0 0.0 0.0 0.00 0.00 0.00 82 1013.8
20260830190934 65 0 0.0 0.0 0.00 0.00 0.00 82 1013.9
20260830190432 65 0 0.0 0.0 0.00 0.00 0.00 81 1013.9
20260830185434 66 0 0.0 0.0 0.00 0.00 0.00 80 1014.0
20260830184933 66 0 0.0 0.0 0.00 0.00 0.00 80 1014.0
20260830184433 67 0 0.0 0.0 0.00 0.00 0.00 79 1014.0
20260830183933 67 0 0.0 0.0 0.00 0.00 0.00 79 1014.0
20260830183433 67 0 0.0 0.0 0.00 0.00 0.00 78 1013.9
20260830182933 68 0 0.0 0.0 0.00 0.00 0.00 77 1013.9
20260830182433 68 0 0.0 0.0 0.00 0.00 0.00 76 1013.9
20260830181932 68 0 0.0 0.0 0.00 0.00 0.00 76 1013.8
20260830181432 69 0 0.0 0.0 0.00 0.00 0.00 76 1013.8
20260830180933 69 0 0.0 0.0 0.00 0.00 0.00 74 1013.8
20260830180433 70 0 0.0 0.0 0.00 0.00 0.00 73 1013.7
20260830175933 70 0 0.0 0.0 0.00 0.00 0.00 73 1013.7
20260830175433 70 0 0.0 0.0 0.00 0.00 0.00 73 1013.6
20260830174933 70 0 0.0 0.0 0.00 0.00 0.00 74 1013.6
20260830174433 70 0 0.0 0.0 0.00 0.00 0.00 74 1013.5
20260830173433 71 0 0.0 0.0 0.00 0.00 0.00 73 1013.5
20260830172933 71 0 0.0 0.0 0.00 0.00 0.00 73 1013.5
20260830172434 71 0 0.0 0.0 0.00 0.00 0.00 73 1013.3
20260830171934 72 0 0.0 0.0 0.00 0.00 0.00 72 1013.3
20260830171433 73 0 0.0 0.0 0.00 0.00 0.00 70 1013.3
20260830170933 73 0 0.0 0.0 0.00 0.00 0.00 70 1013.3
20260830165933 74 0 0.0 0.0 0.00 0.00 0.00 69 1013.3
20260830165433 74 0 0.0 0.0 0.00 0.00 0.00 69 1013.3
20260830164933 75 0 0.0 0.0 0.00 0.00 0.00 69 1013.4
20260830164433 75 0 0.0 0.0 0.00 0.00 0.00 69 1013.4
20260830163433 75 0 0.0 0.0 0.00 0.00 0.00 68 1013.3
20260830162433 75 0 0.0 0.0 0.00 0.00 0.00 68 1013.4
20260830161933 76 0 0.0 0.0 0.00 0.00 0.00 65 1013.3
20260830161433 77 0 0.0 0.0 0.00 0.00 0.00 61 1013.4
20260830160433 77 0 0.0 0.0 0.00 0.00 0.00 62 1013.4
20260830155933 77 0 0.0 0.0 0.00 0.00 0.00 61 1013.5
20260830155433 77 0 0.0 0.0 0.00 0.00 0.00 61 1013.5
20260830154933 76 0 0.0 0.0 0.00 0.00 0.00 63 1013.5
20260830154434 77 0 0.0 0.0 0.00 0.00 0.00 61 1013.5
20260830153934 78 0 0.0 0.0 0.00 0.00 0.00 58 1013.6
20260830153433 79 0 0.0 0.0 0.00 0.00 0.00 57 1013.6
20260830152935 79 0 0.0 0.0 0.00 0.00 0.00 56 1013.6
20260830152434 79 0 0.0 0.0 0.00 0.00 0.00 56 1013.6
20260830151933 79 0 0.0 0.0 0.00 0.00 0.00 59 1013.6
20260830151433 79 0 0.0 0.0 0.00 0.00 0.00 56 1013.6
20260830150933 78 0 0.0 0.0 0.00 0.00 0.00 59 1013.6
20260830150435 78 0 0.0 0.0 0.00 0.00 0.00 59 1013.7
20260830145934 78 0 0.0 0.0 0.00 0.00 0.00 57 1013.7
20260830144933 80 0 0.0 0.0 0.00 0.00 0.00 56 1013.8
20260830144433 80 0 0.0 0.0 0.00 0.00 0.00 56 1013.8
20260830143933 80 0 0.0 0.0 0.00 0.00 0.00 54 1013.8
20260830143434 81 0 0.0 0.0 0.00 0.00 0.00 52 1013.8
20260830142934 81 0 0.0 0.0 0.00 0.00 0.00 53 1013.8
20260830142433 80 0 0.0 0.0 0.00 0.00 0.00 54 1013.8
20260830141934 81 0 0.0 0.0 0.00 0.00 0.00 52 1013.9
20260830141434 81 0 0.0 0.0 0.00 0.00 0.00 53 1013.9
20260830140934 81 0 0.0 0.0 0.00 0.00 0.00 54 1013.9
20260830140434 81 0 0.0 0.0 0.00 0.00 0.00 51 1013.9
20260830135934 82 0 0.0 0.0 0.00 0.00 0.00 52 1013.9
20260830135434 81 0 0.0 0.0 0.00 0.00 0.00 54 1013.9
20260830134933 81 0 0.0 0.0 0.00 0.00 0.00 53 1013.9
20260830134433 81 0 0.0 0.0 0.00 0.00 0.00 53 1013.9
20260830133934 81 0 0.0 0.0 0.00 0.00 0.00 52 1013.9
20260830133434 81 0 0.0 0.0 0.00 0.00 0.00 54 1013.9